Regional Weather Roundup
Issued by NWS

Home | Current Version | Previous Version | Text Only | Print | Product List | Glossary Off
Versions: 1 2 3 4 5 6 7 8 9 10 11 12 13 14 15 16 17 18 19 20 21 22 23 24 25 26 27 28 29 30 31 32 33 34 35 36 37 38 39 40 41 42 43 44 45 46 47 48 49 50

000
ASUS43 KMKX 190321
RWRWI

WISCONSIN REGIONAL WEATHER ROUNDUP
NATIONAL WEATHER SERVICE MILWAUKEE/SULLIVAN WI
900 PM CST WED JAN 18 2017

NOTE: "FAIR" INDICATES FEW OR NO CLOUDS BELOW 12,000 FEET WITH NO
SIGNIFICANT WEATHER AND/OR OBSTRUCTIONS TO VISIBILITY.

WIZ001-002-006>008-014>016-023>028-190400-
NORTHWEST WISCONSIN

CITY           SKY/WX    TMP DP  RH WIND       PRES   REMARKS
SUPERIOR ARPT  CLOUDY    32  27  81 SW6       29.82S WCI  26
ASHLAND        CLOUDY    35  28  75 SW9       29.83S WCI  28
HAYWARD        CLOUDY    28  25  88 S6        29.85S WCI  22
SIREN          CLOUDY    31  30  94 SE3       29.84F
CUMBERLAND     CLOUDY    28  28 100 S6        29.86R FOG     WCI  22
RICE LAKE      CLOUDY    29  28  95 SE5       29.88S FOG     WCI  24
CHETEK         CLOUDY    31  29  95 S3        29.88S FOG
LADYSMITH      CLOUDY    32  29  90 S5        29.89S FOG     WCI  27
EAU CLAIRE     CLOUDY    30  28  92 SE3       29.89S FOG
MENOMONIE      CLOUDY    32  30  94 MISG      29.89S FOG
NEW RICHMOND   CLOUDY    31  30  99 SE3       29.86S FOG
OSCEOLA        CLOUDY    32  32 100 SE5       29.88S WCI  27
$$

WIZ003>005-009-010-017-018-190400-
NORTH CENTRAL WISCONSIN

CITY           SKY/WX    TMP DP  RH WIND       PRES   REMARKS
MANITOWISH WTR CLOUDY    32  30  92 SW6       29.83S WCI  26
ARBOR VITAE    CLOUDY    33  29  86 SW5       29.84S WCI  28
WOODRUFF       CLOUDY    33  29  86 SW5       29.84S WCI  28
RHINELANDER    CLOUDY    32  29  88 SW8       29.85F WCI  25
EAGLE RIVER    CLOUDY    32  27  81 SW5       29.84R WCI  27
LAND O LAKES   CLOUDY    32  28  83 SW3       29.85S
PHILLIPS       CLOUDY    29  28  96 S6        29.85F WCI  23
TOMAHAWK       CLEAR     28  26  94 CALM      29.88S FOG
MEDFORD        CLOUDY    29  27  92 S8        29.88S FOG     WCI  21
MERRILL        CLOUDY    31  29  94 SW3         N/A
$$

WIZ029-030-035-036-043>047-190400-
CENTRAL WISCONSIN

CITY           SKY/WX    TMP DP  RH WIND       PRES   REMARKS
WAUSAU         CLOUDY    31  28  89 CALM      29.89S
MOSINEE        CLEAR     30  30 100 SW7       29.92R WCI  23
MARSHFIELD     CLOUDY    30  27  88 SW3       29.90R FOG
STEVENS POINT  CLOUDY    30  29  96 CALM      29.93S
WAUPACA        CLEAR     33  29  86 CALM      29.94S
WAUTOMA        CLOUDY    31  29  92 SW6       29.96R WCI  25
WISC RAPIDS    CLOUDY    31  29  92 SW8       29.94S WCI  23
CAMP DOUGLAS   PTCLDY    34  30  86 S7        29.93F WCI  28
$$

WIZ011>013-019>022-031-037>040-048>050-190400-
NORTHEAST WISCONSIN

CITY           SKY/WX    TMP DP  RH WIND       PRES   REMARKS
ANTIGO         CLOUDY    28  28  96 W8        29.88S WCI  20
SHAWANO        CLEAR     36  31  82 SW3       29.92R
OCONTO         NOT AVBL
STURGEON BAY   CLEAR     34  30  85 SW14      29.91S WCI  25
GREEN BAY      CLEAR     34  31  88 SW8       29.93R WCI  27
MANITOWOC      CLEAR     34  29  82 MISG      29.95R
APPLETON       CLEAR     32  30  93 SW13      29.92S WCI  22
CLINTONVILLE   CLEAR     32  28  86 SW8       29.92S WCI  25
OSHKOSH        CLEAR     32  29  88 SW9       29.95R FOG     WCI  24
$$

WIZ032>034-041-042-053>061-190400-
SOUTHWEST WISCONSIN

CITY           SKY/WX    TMP DP  RH WIND       PRES   REMARKS
LA CROSSE      CLOUDY    36  31  82 S12       29.94F WCI  28
SPARTA         CLOUDY    32  31  95 SW5       29.95S WCI  27
VIROQUA        CLOUDY    32  32 100 S12       29.94F VSB 1/2 WCI  23
BOSCOBEL       CLOUDY    35  32  88 S7        30.00F FOG     WCI  29
PRAIRIE DU CHI CLOUDY    34  32  92 CALM      29.99F FOG
PLATTEVILLE    PTCLDY    33  33 100 S8        30.00F WCI  26
$$

WIZ056-057-062-063-064-067-068-190400-
SOUTH CENTRAL WISCONSIN

CITY           SKY/WX    TMP DP  RH WIND       PRES   REMARKS
REEDSBURG      CLOUDY    32  32 100 SW9       29.97  WCI  24
BARABOO/DELLS  CLOUDY    32  30  93 SW10      29.96F FOG     WCI  24
LONE ROCK      CLOUDY    34  31  88 SW5       30.00F FOG     WCI  30
MINERAL POINT  FOG       34  34 100 S7        29.99S VSB 1/4 WCI  28
MADISON        CLOUDY    32  30  92 SW10      30.00F FOG     WCI  24
MIDDLETON      CLOUDY    33  33 100 SW8       30.00S WCI  26
WATERTOWN      CLOUDY    33  33 100 SW10      30.00R WCI  24
MONROE         CLOUDY    32  32 100 S9        30.00F FOG     WCI  24
JANESVILLE     CLOUDY    36  36 100 S10       30.03F FOG     WCI  28
$$

WIZ051-052-058>065-066-070>072-190400-
SOUTHEAST WISCONSIN

CITY           SKY/WX    TMP DP  RH WIND       PRES   REMARKS
MILWAUKEE      CLOUDY    35  31  85 SW13      30.01S WCI  26
WAUKESHA       CLOUDY    32  30  93 SW5G16    30.01S FOG     WCI  27
MILWAUKEE/TIMM MOCLDY    32  28  86 SW12      30.01S FOG     WCI  23
RACINE         CLOUDY    34  30  85 SW10      30.04S WCI  26
KENOSHA        CLOUDY    34  31  88 SW13      30.02F WCI  25
FOND DU LAC    PTCLDY    33  29  85 SW14G22   29.96S FOG     WCI  23
SHEBOYGAN      CLEAR     33  29  85 SW12      29.96S WCI  24
WEST BEND      CLOUDY    32  32 100 SW7       29.98S WCI  26
JUNEAU         CLOUDY    32  31  96 S20       30.00R FOG     WCI  20
$$

LSZ147-162-190400-
LAKE SUPERIOR

STATION/POSITION TIME  TEMP    WIND        PRES    WAVE
                       AIR SEA DIR/SP/G            HT/PER
                 (UTC) (F)     (DEG/KT/KT) (MB)    (FT/S)
DEVILS ISLAND    0300   37     210/ 10/ 11 1010.3R
PORT WING        0240   32     200/  2/  3 1010.2S
SAXON HARBOR     0240   36     190/  4/  8 1010.2R
$$

LMZ867-665-643>646-190400-
LAKE MICHIGAN

STATION/POSITION TIME  TEMP    WIND        PRES    WAVE
                       AIR SEA DIR/SP/G            HT/PER
                 (UTC) (F)     (DEG/KT/KT) (MB)    (FT/S)
NORTHPORT PIER   0240   34      CALM  /  4 1012.5S
SISTER BAY       0250   35     220/  9/ 12   N/A
KEWAUNEE LAKESHO 0254   34     240/  5/  8 1013.4R
SHEBOYGAN LAKESH 0300   33     210/  8/  9 1015.1R
PORT WASHINGTON  0240   33     250/  4/ 10 1016.3S
MILWAUKEE LAKESH 0300   34     230/ 17/ 20   N/A
KENOSHA   LAKESH 0300   35     230/  7/ 14 1016.9
$$

TC  - TEMPERATURE IN CELSIUS
VSB - VISIBILITY IN STATUTE MILES
WCI - WIND CHILL INDEX
HX  - HEAT INDEX




USA.gov is the U.S. government's official web portal to all federal, state and local government web resources and services.